Location: Bucquoy
(50.1391°N, 2.7097°E)
Time: 22:24:56
(UTC+00:00)

Cosmos 1461 - Pass Details

Date: 06 May 2021
Orbit: 510 x 653 km, 65.0° (Epoch: 20 June)

Event Time Altitude Azimuth Distance (km) Brightness Sun altitude
Exits shadow 01:51:39 23° 260° (W) 1,393 4.5 -17.8°
Maximum altitude 01:54:11 42° 319° (NW) 917 4.0 -17.6°
Drops below altitude 10° 01:58:34 10° 31° (NNE) 2,022 7.0 -17.2°
Sets 02:00:55 0° 38° (NE) 2,913 8.3 -17.0°
